星链-30193 (STARLINK-30193 )

导读 | 豆包AI

STARLINK-30193是美国太空探索技术公司星链星座的成员,于2023年7月20日发射入轨,属于星链项目第二代低轨互联网卫星,部署在近地轨道,旨在为全球提供高速低延迟卫星互联网服务,补充完善星链星座的全球覆盖能力,推进星链星座组网进程。

基本信息
目录编号:
57414
目录名称:
STARLINK-30193
国际标识:
2023-102L
轨道中心:
EARTH
卫星名称:
星链-30193
卫星全名:
星链-30193 (STARLINK-30193 )
卫星状态:
在轨 (已飞行1015 天)
发射日期:
2023-07-20 UTC
国别 :
美国 (US)
星等 :
--
轨道信息
数据来源 国际轨道数据
星历时间: 2026-04-30T12:00:01+0800
12小时前
查看轨道信息
半长轴: 6853.957km
偏心率: 0.0001059
轨道倾角: 43.000°
近地点辐角 263.359°
升交点赤经 319.542°
平近点角 68.850°
近地点: 475.094km
远地点: 476.546km
周期: 94.118分钟
每日圈数: 15.299977
详细信息
固有亮度:
5
最大亮度:
0.3
卫星平台:
Starlink v2.0 mini
覆盖范围:
全球
运营商:
太空探索技术公司
运营商所在国:
美国
制造商(研发单位):
太空探索技术公司
制造商所在国:
美国
使用方式:
暂无
卫星简介
星链(Starlink)计划是由太空探索技术公司(SpaceX)提出的一个巨型低轨卫星互联网星座项目,计划在2019年至2024年间在太空搭建由约1.2万颗卫星组成的“星链”网络,其中1584颗将部署在地球上空550千米处的近地轨道,并从2020年开始工作。该卫星仍在工作。
2D轨道图
3D轨道图
轨道高度分析图
轨道倾角分析图
轨道综合分析图
查看轨道综合分析图